Weather Roundup
Issued by NWS Springfield, MO

Home | Current Version | Previous Version | Text Only | Print | Product List | Glossary On
Versions: 1 2 3 4 5 6 7 8 9 10 11 12 13 14 15 16 17 18 19 20 21 22 23 24 25 26 27 28 29 30 31 32 33 34 35 36 37 38 39 40 41 42 43 44 45 46 47 48 49 50
000
NZUS99 KSGF 220307
HRRSGF

HOURLY WEATHER
NATIONAL WEATHER SERVICE SPRINGFIELD MO
1000 PM CDT SAT OCT 21 2017

......SGF CWA......

CITY           SKY/WX    TMP DP  RH WIND       PRES   REMARKS
SPRINGFIELD    CLOUDY    71  66  84 SE15G25   29.92R
JOPLIN         CLOUDY    72  66  81 S12       29.88R
WEST PLAINS    MOCLDY    72  63  73 SE12G21   29.98S
ROLLA          CLOUDY    71  64  78 S8        29.98R
OSAGE BEACH    CLOUDY    71  65  81 S6        29.95
BRANSON        MOCLDY    68  66  94 SE9       29.95S

......SURROUNDING SGF CWA......

CITY           SKY/WX    TMP DP  RH WIND       PRES   REMARKS
CHANUTE        RAIN      58  56  93 N14       29.93R
PARSONS        TSTM      58  57  97 N6        29.92R FOG
COFFEYVILLE    TSTM      59  59 100 CALM      29.93R FOG
EMPORIA        RAIN      53  50  89 N9        29.98R
GROVE OK       CLOUDY    72  68  88 SE6       29.90R
ROGERS AR      CLOUDY    72  66  81 SE12      29.92R
SILOAM SPRINGS CLOUDY    71  66  84 SE14      29.89S
HARRISON AR    CLOUDY    72  67  84 S13       29.96R
NEAR YELLVILLE PTCLDY    73  67  81 VRB7      29.93F

......KANSAS AND MISSOURI......

CITY           SKY/WX    TMP DP  RH WIND       PRES   REMARKS
KANSAS CTY INT TSTM      55  54  96 N17G23    29.92R FOG
DOWNTOWN KC    RAIN      58  57  97 NW15      29.91R FOG
COLUMBIA       CLOUDY    72  65  78 S12       29.93S
SEDALIA        MOCLDY    73  65  75 S16G26    29.89R
ST JOSEPH      RAIN      55  55 100 N10       29.94F FOG
ST LOUIS       MOCLDY    74  60  61 S17G24    29.98R
SPIRIT OF STL  CLOUDY    74  61  63 VRB5      29.96R
KIRKSVILLE     RAIN      70  66  87 S15G23    29.88R
WICHITA        TSTM      57  53  86 N12G20    29.94R
TOPEKA         RAIN      54  53  97 NW6       29.97R
OLATHE         LGT RAIN  56  55  97 N17G24    29.90S

......TENNESSEE......

CITY           SKY/WX    TMP DP  RH WIND       PRES   REMARKS
MEMPHIS        CLOUDY    73  63  70 SE12G21   30.06F
NASHVILLE      CLOUDY    68  51  54 SE9       30.20R

......ARKANSAS.......

CITY           SKY/WX    TMP DP  RH WIND       PRES   REMARKS
FAYETTEVILLE   CLOUDY    73  67  81 SE10G30   29.90S
FT SMITH       CLOUDY    75  69  81 E7        29.88R
LITTLE ROCK    MOCLDY    73  69  87 SE13      29.97S

......OKLAHOMA.......

CITY           SKY/WX    TMP DP  RH WIND       PRES   REMARKS
TULSA          TSTM      62  58  86 NW20G35   29.91R VSB 1
PONCA CITY     TSTM      57  52  83 NE21G30   29.91R
MCALESTER      CLOUDY    79  65  62 S12G20    29.85S
OKLAHOMA CITY  TSTM      57  54  89 N26G36    29.90R

......IOWA............

CITY           SKY/WX    TMP DP  RH WIND       PRES   REMARKS
DES MOINES     TSTM      56  53  90 W7        29.90R
QUAD CITIES    CLEAR     71  59  65 S12       29.88R

......ILLINOIS........

CITY           SKY/WX    TMP DP  RH WIND       PRES   REMARKS
QUINCY         LGT RAIN  73  61  65 S13       29.92R
CHICAGO        PTCLDY    69  56  62 S16       29.99F




USA.gov is the U.S. government's official web portal to all federal, state and local government web resources and services.